[Iaude] MPEC Y77: 2023 JV3 [a=1.39,e=0.44,i=23.3,H=20.57]

mpec at marsden.cfa.harvard.edu mpec at marsden.cfa.harvard.edu
Fri Dec 22 09:12:21 EST 2023


M.P.E.C. 2023-Y77                             Issued 2023 December 22, 14:10 UT

     The Minor Planet Electronic Circulars contain information on unusual
         minor planets, routine data on comets and natural satellites,
         and occasional editorial announcements.  They are published
    on behalf of Division F of the International Astronomical Union by the
          Minor Planet Center, Smithsonian Astrophysical Observatory,
                          Cambridge, MA 02138, U.S.A.
			  
             Prepared using the Tamkin Foundation Computer Network

                              MPC at CFA.HARVARD.EDU
            URL https://www.minorplanetcenter.net/    ISSN 1523-6714

                                    2023 JV3                                    


                           Revision to MPEC 2023-K19                            

Additional Observations:
     K23J03V 1C2005 05 16.39418 17 20 21.38 -05 13 21.5          20.0 GVEY077G96
     K23J03V 1C2005 05 16.40068 17 20 21.10 -05 12 57.0          20.6 GVEY077G96
     K23J03V 1C2005 05 16.40718 17 20 20.76 -05 12 33.1          20.5 GVEY077G96
     K23J03V KC2023 12 21.15033 04 20 10.80 -44 38 20.5          19.2 GVEY077W94
     K23J03V KC2023 12 21.15660 04 20 11.34 -44 38 04.7          19.5 GVEY077W94
     K23J03V KC2023 12 21.16278 04 20 11.86 -44 37 47.2          19.5 GVEY077W94

Observer details:
G96 Mt. Lemmon Survey.  Observer S. M. Larson.  Measurers B. Gray, D. Rankin,
    F. C. Shelly.  1.5-m reflector + CCD.
W94 MAP, San Pedro de Atacama.  Observers A. Maury, G. Attard.  Measurers A.
    Maury, G. Attard, D. Parrott, F. Signoret, J.-M. Mari.  0.36-m f/1.9
    Schmidt astrograph + CCD.

First and last observations above in comparison with prediction:
Residuals in seconds of arc (or two decimals in degrees), reference and Delta-T
050516 G96 0.11- 0.04-    231221 W94 0.00- 0.01-    MPO782814   -0.00 days

Orbital elements:
2023 JV3                                                 Earth MOID = 0.0836 AU
Epoch 2023 Sept. 13.0 TT = JDT 2460200.5                Veres                   
M 340.81785              (2000.0)            P               Q                  
n   0.59829994     Peri.  128.85883     +0.95116737     +0.06290320             
a   1.3948368      Node   229.77820     -0.10674381     +0.98564398             
e   0.4355392      Incl.   23.31466     +0.28963148     +0.15668160             
P   1.65           H   20.57          G   0.15           U   0                  
Residuals in seconds of arc
050516 G96  0.4-  0.3-    230515 474  0.2+  0.1+    231203 807  0.0   0.1-
050516 G96  0.3+  0.2+    230515 474  0.4+  0.2+    231203 807  0.1-  0.0
050516 G96  0.1+  0.1+    230521 V06  0.2-  0.4-    231203 807  0.0   0.2-
230424 F52  0.1+  0.2-    230521 V06  0.1+  0.1+    231203 R56  0.1-  0.6-
230424 F52  0.2-  0.2+    230521 V06  0.8-  0.3+    231203 R56  1.2+  0.4-
230424 F52  0.0   0.3-    230521 V06  0.2-  0.2+    231203 R56  0.1+  2.0+
230424 F52  0.3-  0.2-    230527 V06  0.0   0.1-    231211 M22  0.5-  0.1+
230513 F52  0.3-  0.0     230527 V06  0.2-  0.7+    231211 M22  0.4+  0.6-
230513 F52  0.0   0.3-    230527 V06  0.1-  0.3+    231211 M22  0.9-  1.1-
230513 F52  0.1-  0.1+    230527 V06  0.4+  0.2-    231211 M22  0.2-  0.4-
230513 F52  0.1-  0.2-    230610 807  0.3-  0.2-    231212 L87  0.2+  0.0
230513 F52  0.0   0.0     230610 807  0.6-  0.2-    231212 L87  0.0   0.7+
230514 807  0.0   0.0     230610 807  0.1+  0.5-    231212 L87  0.2+  0.7+
230514 807  0.0   0.0     230610 V06  0.1-  0.2-    231221 W94  0.1-  0.9+
230514 807  0.1-  0.1-    230610 V06  0.2+  0.2-    231221 W94  0.3+  0.8-
230515 474  0.0   0.1-    230610 V06  0.1+  0.1-    231221 W94  0.5+  0.6-
230515 474  0.4+  0.5-    230610 V06  0.0   0.1+

Ephemeris:
2023 JV3                 a,e,i = 1.39, 0.44, 23                  q = 0.7873
Date    TT    R. A. (2000) Decl.     Delta      r    Elong.  Phase     V
2023 11 22    18 25 39.3 -47 49 47   0.09944 0.9167    42.3   133.5    21.4
...
2023 12 07    03 28 52.1 -60 57 39   0.1674  1.0133    94.9    75.7    19.4
...
2023 12 15    04 07 34.5 -50 06 10   0.2360  1.0685   104.6    63.1    19.8
...
2023 12 21    04 19 56.7 -44 45 11   0.2900  1.1107   108.6    57.1    20.2
2023 12 22    04 21 30.6 -43 59 36   0.2991  1.1177   109.0    56.3    20.2
2023 12 23    04 22 59.1 -43 15 42   0.3083  1.1248   109.5    55.5    20.3
...
2023 12 29    04 30 30.8 -39 20 06   0.3636  1.1670   111.5    51.6    20.6
...
2024 01 06    04 38 48.8 -34 53 42   0.4387  1.2229   112.9    47.8    21.0
...
2024 01 21    04 54 01.9 -27 47 05   0.5846  1.3249   112.8    43.2    21.7

A. U. Tomatic                (C) Copyright 2023 MPC           M.P.E.C. 2023-Y77





More information about the Iaude mailing list